Theta_e
336 341 345 348 350 350 351 349 345 344 345 347 349 349 349 350 351 351 350 348 349 348 347 349 350 350 350 348 347 348 348 347 346 345 343 343 344 344 344 346 346 347 347 348 349 348 345 343 345 348 348 349 349 348 348 348 349 348 349 349 349 347 346 346 346 346 346 347 347 348 346 347 348 348 348 348 348 348 348 349 348 347 347 347 347
338 343 347 349 350 351 350 347 342 341 343 344 346 348 348 349 350 351 350 350 350 348 346 348 349 349 350 349 350 350 349 347 347 346 344 342 343 343 343 345 346 347 346 347 349 348 348 347 344 346 348 348 349 348 348 349 348 347 347 347 347 346 346 347 346 345 346 347 347 348 347 347 348 348 348 349 348 348 348 348 348 348 348 349 348
345 348 349 350 350 351 349 343 343 342 341 343 345 346 347 348 349 351 350 350 351 349 347 348 349 350 350 350 350 350 349 348 347 347 346 343 342 342 342 343 345 347 346 346 348 348 348 347 343 344 348 347 348 349 348 348 348 348 347 346 346 344 345 345 345 345 345 346 347 347 347 347 347 347 347 348 348 348 348 348 349 348 348 348 348
350 351 351 352 352 352 348 344 346 344 340 342 344 345 346 347 349 350 350 350 351 350 349 349 351 351 350 350 350 349 349 349 348 347 347 345 342 342 343 344 345 347 347 346 347 348 348 348 343 343 347 347 347 348 348 348 348 348 348 347 345 344 344 344 344 344 344 345 346 346 347 347 346 347 346 347 347 347 347 347 347 348 347 347 347
352 352 351 351 351 353 351 348 348 345 342 341 342 344 345 347 348 349 348 347 349 350 350 351 352 351 351 351 350 350 350 350 349 348 347 347 345 345 345 345 346 346 347 347 347 348 349 349 345 343 346 348 347 347 347 348 347 348 348 346 345 344 343 344 344 343 343 344 344 345 346 346 346 345 346 346 346 346 346 346 347 347 347 347 347
351 349 349 350 351 352 353 351 348 345 344 344 343 343 344 346 347 348 346 345 346 348 350 351 351 351 351 350 350 350 351 350 350 349 348 347 347 347 346 346 346 346 347 348 348 349 349 349 348 346 345 347 348 348 347 347 347 348 347 345 344 344 342 342 343 343 344 345 344 344 344 344 344 344 344 344 345 345 344 345 345 346 346 346 346
349 348 348 349 350 351 352 351 348 346 347 346 345 344 344 344 345 347 346 345 345 347 350 351 351 352 351 351 351 351 350 349 350 350 349 348 348 349 348 347 347 347 346 347 348 349 350 350 351 350 346 345 346 347 348 348 348 346 345 344 344 344 342 341 341 342 343 344 345 345 344 344 343 343 344 344 344 343 343 343 343 344 345 345 346
349 350 349 349 350 350 350 350 349 349 349 348 348 347 345 344 345 346 346 345 345 347 348 350 351 350 350 350 350 351 350 350 351 350 350 349 349 349 349 348 347 347 347 346 347 347 350 350 350 351 349 346 343 343 346 347 347 345 344 343 342 342 341 340 340 342 342 342 343 344 345 345 345 345 345 345 345 344 343 343 343 344 344 344 345
349 349 348 348 348 348 349 349 349 349 349 350 350 349 348 346 345 345 346 346 346 346 347 349 349 349 349 350 350 351 350 350 350 350 351 350 350 350 349 349 347 348 348 348 347 346 347 349 350 350 350 349 346 343 343 344 345 343 342 342 340 340 341 341 342 344 344 343 343 345 345 346 347 347 346 346 346 346 346 345 346 346 345 346 346
349 348 348 348 348 347 347 347 348 348 350 350 350 350 350 348 346 345 345 346 347 347 347 347 349 348 349 349 349 349 349 349 349 350 351 350 350 349 349 349 348 349 349 349 348 347 346 348 350 351 350 350 349 347 345 344 344 343 343 343 342 341 342 344 345 346 347 347 347 347 348 348 349 348 348 348 347 348 347 347 347 347 347 347 347
350 350 350 347 347 348 348 347 348 349 350 350 351 351 351 350 348 346 346 346 347 347 347 347 348 349 349 349 348 348 348 348 349 349 350 351 350 350 350 350 349 349 349 349 349 348 348 347 348 350 351 350 351 350 349 348 347 346 346 347 347 346 345 345 346 348 348 349 350 350 351 351 351 351 350 349 349 348 348 347 347 347 347 346 345
353 353 353 350 350 352 352 351 351 351 351 350 351 351 350 351 351 349 347 347 347 347 347 347 349 349 349 348 348 348 347 347 348 349 350 350 350 351 351 351 351 350 349 350 350 349 349 349 348 348 350 350 351 351 351 350 349 348 348 348 349 349 349 348 348 349 350 350 350 351 351 351 351 351 351 351 350 349 349 348 348 347 347 347 345
354 354 354 353 353 353 353 353 352 352 351 350 350 350 350 351 351 350 349 348 348 349 348 348 349 349 348 347 347 347 347 347 347 348 349 351 351 351 351 351 352 351 350 350 351 351 350 350 350 349 349 350 350 350 351 351 351 350 349 348 348 348 349 348 349 350 350 350 350 351 351 350 351 351 351 351 350 350 350 349 348 348 348 348 348
353 352 353 353 353 352 352 352 352 351 351 351 351 351 351 351 351 351 350 350 350 349 349 349 349 348 347 348 348 348 348 346 347 348 349 350 350 351 351 351 351 351 351 350 351 351 351 351 350 350 349 349 349 349 349 350 351 351 350 350 348 348 348 348 347 348 348 349 350 351 350 350 350 350 350 350 350 350 350 349 350 349 349 349 349
353 353 352 353 353 352 352 352 351 351 351 351 352 352 352 352 351 351 351 350 350 350 349 349 348 347 347 349 350 350 352 349 347 347 348 349 350 350 351 351 350 350 350 350 351 351 351 351 351 350 350 350 349 349 349 350 349 349 349 349 349 349 348 348 348 347 347 347 348 349 349 350 349 349 349 349 350 349 350 350 350 349 349 349 349
352 352 352 352 353 353 352 353 353 352 352 351 352 352 352 352 351 351 351 351 351 351 350 349 348 347 349 350 348 350 356 352 347 348 348 348 349 349 351 351 350 350 350 350 350 351 351 351 351 351 350 350 350 350 350 350 350 349 349 348 348 348 347 347 347 348 348 347 346 346 347 348 347 348 349 349 349 349 350 349 349 349 349 349 349
352 352 351 350 351 351 350 350 351 352 351 352 353 352 352 352 352 352 352 352 351 350 350 349 348 348 348 349 350 352 355 351 348 352 349 348 350 349 350 350 351 350 350 351 351 350 351 351 351 351 351 351 351 351 351 351 351 350 350 350 349 348 347 347 346 346 347 347 347 346 347 347 346 346 347 348 348 348 349 349 349 349 349 349 349
351 351 351 350 351 352 350 349 350 351 351 353 353 353 353 352 352 352 352 352 352 351 349 348 348 348 347 348 349 351 351 348 351 354 351 350 351 351 350 350 351 351 351 351 351 352 351 351 351 351 350 351 351 351 351 351 351 351 351 351 351 351 350 349 347 346 346 346 346 345 346 346 345 345 345 346 346 348 348 348 349 348 348 349 349
352 352 352 352 352 353 352 352 352 352 352 353 353 353 353 353 352 352 352 352 352 350 349 348 348 348 348 347 346 346 347 348 350 352 352 352 351 349 351 350 350 351 351 352 352 353 353 352 351 351 350 350 350 351 351 351 352 352 352 352 352 352 351 351 350 349 349 348 347 347 345 344 344 344 344 344 344 346 347 347 348 348 348 348 348
351 351 352 352 353 353 353 353 353 353 352 352 352 353 352 353 353 353 352 351 350 350 349 349 348 348 349 348 347 347 346 347 347 349 350 351 350 349 349 349 350 350 350 351 352 353 354 353 352 351 351 350 350 350 350 350 351 352 353 352 352 352 352 352 351 351 351 351 351 350 350 349 348 346 345 344 343 344 345 346 346 346 347 348 348
347 347 348 348 349 350 351 351 352 353 353 353 352 352 352 352 353 353 352 351 351 350 349 349 349 349 349 349 349 348 347 346 347 347 347 349 350 350 349 349 350 350 350 350 350 351 351 352 352 352 351 351 351 350 350 350 350 351 352 352 352 352 352 352 351 351 351 351 352 352 352 352 352 351 350 348 346 345 345 345 346 346 346 347 347
344 344 344 345 344 346 347 348 350 352 353 353 352 352 352 351 351 351 351 352 352 351 350 350 351 350 349 350 349 348 348 348 347 348 349 349 349 350 349 349 350 350 350 349 350 349 349 349 350 351 351 350 350 350 351 351 351 351 352 352 352 352 351 351 352 351 352 351 352 353 353 353 353 353 353 352 350 349 348 347 347 348 347 348 347
343 343 343 344 343 344 345 346 348 350 351 352 353 352 351 352 352 351 352 352 352 352 351 352 351 351 350 350 349 349 349 349 349 349 349 349 349 349 349 349 349 350 349 349 349 349 349 350 350 349 350 349 350 349 350 350 351 351 351 352 352 352 351 351 351 351 352 352 352 353 354 353 353 353 354 353 353 352 351 351 351 351 350 351 350
342 343 342 343 344 344 344 345 347 349 351 351 353 352 352 352 352 352 353 353 352 352 352 352 352 352 350 349 350 350 349 349 349 349 349 350 349 349 349 348 348 348 348 348 348 348 349 349 349 349 349 350 350 350 350 350 350 350 351 351 351 351 350 351 351 352 352 352 352 353 354 354 354 354 354 354 353 353 353 353 353 352 353 352 352
342 341 342 343 344 344 343 344 344 346 348 350 352 353 352 351 351 351 352 352 352 352 351 351 350 351 351 349 348 349 350 350 350 350 349 349 348 348 348 347 348 348 348 348 348 349 349 348 349 348 349 350 349 350 350 350 350 349 350 350 350 350 350 350 349 350 351 352 352 354 354 354 354 355 355 355 354 354 354 353 353 353 353 353 353
341 341 342 343 343 343 343 343 343 342 343 345 347 349 351 351 350 350 350 351 351 350 350 348 347 348 349 349 349 350 350 350 350 350 349 348 347 347 348 347 348 348 348 348 349 350 349 348 348 349 349 350 350 350 351 351 350 349 350 350 350 350 350 349 349 350 350 351 352 354 354 354 354 354 355 355 355 355 354 354 354 354 354 354 354
340 341 342 342 341 341 341 341 342 341 340 341 342 345 348 350 350 350 350 350 350 349 348 347 346 347 347 347 348 349 349 350 350 350 350 349 348 347 348 348 350 350 348 348 349 349 349 349 349 350 350 350 350 350 351 351 350 350 350 350 351 350 350 350 350 349 349 350 351 352 353 354 354 355 355 355 355 355 355 355 355 355 355 354 354
341 341 342 341 340 341 340 340 340 340 340 342 342 345 347 349 349 350 351 351 350 350 349 347 347 347 347 347 348 348 350 350 350 351 350 350 349 348 348 349 351 352 350 349 351 350 348 349 349 349 349 349 350 351 351 351 351 351 351 351 351 350 350 350 350 350 350 349 350 351 353 354 354 355 356 355 355 355 355 355 355 356 357 356 354
340 340 340 340 339 340 339 339 339 339 341 342 344 344 346 348 349 350 351 351 351 351 350 349 349 348 347 347 347 349 351 351 351 351 350 349 348 347 347 347 349 351 351 352 353 350 348 349 349 349 349 348 349 350 351 351 351 351 351 351 351 351 351 351 350 350 349 349 349 350 352 353 354 355 356 356 356 356 356 356 356 356 357 357 355
337 337 337 337 338 338 338 338 338 339 340 342 343 343 343 344 346 348 349 350 351 351 350 350 350 350 349 348 349 350 352 351 352 350 349 349 347 345 344 345 346 348 350 352 352 351 349 349 349 349 349 348 349 350 350 351 351 352 352 351 352 351 352 351 351 350 350 349 350 350 352 353 354 355 356 356 356 356 356 356 357 357 357 355 354
336 336 336 336 337 337 337 338 338 339 339 341 342 342 341 341 343 345 346 348 350 350 349 348 349 350 350 349 350 350 350 351 351 349 349 350 348 345 344 344 345 346 347 350 352 351 349 349 349 349 349 348 348 349 350 350 350 351 352 352 352 352 352 353 352 352 350 351 351 353 353 354 355 355 356 356 356 357 357 357 358 357 356 355 354
336 336 336 337 338 339 339 339 339 339 339 339 339 340 340 341 341 343 344 346 348 349 348 347 347 349 349 350 350 350 350 351 350 349 350 351 349 346 344 344 344 344 344 347 350 351 350 349 349 350 350 349 348 348 349 349 350 350 351 352 351 352 353 353 352 352 352 352 353 355 355 355 356 356 356 356 356 357 357 357 357 357 357 356 356
336 336 336 336 337 338 339 340 339 339 339 339 339 340 341 341 342 343 343 344 345 347 347 346 347 348 348 350 350 351 351 351 350 350 350 351 350 349 347 345 345 343 343 343 347 350 349 349 348 349 350 349 348 347 348 349 348 349 350 351 351 352 352 352 351 352 352 353 354 354 356 356 356 356 356 356 357 356 357 357 357 357 357 357 357
336 336 336 335 335 336 337 338 339 339 339 339 340 341 341 341 342 342 342 343 344 345 346 347 347 347 347 348 348 350 350 350 350 351 350 350 351 351 350 349 347 345 342 343 346 349 349 348 348 348 349 348 347 347 347 347 347 348 349 350 351 352 351 351 352 351 352 352 353 354 355 356 356 356 356 356 357 357 357 357 357 357 358 358 357
335 335 335 334 335 335 336 338 338 339 339 339 340 340 341 341 341 341 342 342 343 344 345 345 346 346 347 347 347 348 349 350 350 350 349 350 350 350 351 350 349 347 345 344 344 347 349 349 348 347 348 348 348 347 346 346 346 348 349 350 351 352 351 351 351 351 351 351 352 353 354 355 356 356 355 356 357 356 357 357 357 358 358 358 358
333 333 333 334 335 336 336 337 338 338 338 339 338 339 339 340 340 341 341 341 342 343 343 344 344 346 347 346 347 348 348 348 349 349 349 349 349 350 350 350 350 350 349 347 345 344 346 348 348 347 348 348 349 348 348 346 347 348 349 350 351 352 351 351 351 350 350 351 352 353 354 355 355 356 356 357 357 356 357 356 356 357 357 357 358
332 332 332 333 335 336 337 337 338 337 337 337 337 338 339 339 339 340 340 341 342 342 343 343 343 344 346 346 346 347 347 348 349 349 349 349 349 349 349 349 350 351 351 350 349 347 347 348 349 349 349 349 349 349 349 348 346 346 348 350 351 352 351 352 352 350 350 351 352 353 354 354 355 356 357 357 357 357 356 356 356 357 357 357 357
332 332 331 332 333 335 337 337 336 335 336 337 337 338 338 338 339 340 340 341 341 342 342 343 343 344 345 346 346 346 346 347 348 349 349 348 348 348 349 349 349 350 349 350 350 350 349 349 349 349 349 349 348 349 350 349 347 346 348 350 351 352 352 352 351 350 350 350 352 353 354 355 355 355 356 356 357 356 357 357 357 357 357 356 357
333 332 331 330 331 334 335 335 335 335 335 336 337 337 337 338 338 339 340 341 341 341 342 342 343 344 344 345 345 346 346 345 346 347 348 347 347 347 348 348 348 349 349 349 350 350 349 349 348 348 348 348 348 349 349 349 348 347 349 352 353 352 352 353 351 350 350 350 350 352 353 354 355 355 356 356 356 357 357 357 357 357 357 357 357
332 332 331 331 331 332 333 334 334 334 334 335 336 336 337 338 339 340 340 340 340 341 341 342 341 342 343 343 344 345 345 345 344 345 346 346 347 347 346 347 347 348 348 349 349 350 350 349 349 348 348 348 348 348 349 349 349 350 350 351 353 352 352 352 351 351 351 350 351 351 352 353 354 354 355 355 355 356 356 357 358 357 357 357 358
330 330 330 331 331 331 332 332 333 334 334 333 334 334 336 338 339 339 339 339 340 340 340 340 341 341 341 342 342 343 344 344 344 344 345 346 346 346 346 346 347 347 347 348 349 350 349 349 349 349 348 347 348 348 349 349 349 350 349 350 353 352 351 353 353 352 353 352 352 352 351 352 353 354 355 355 354 355 356 357 357 356 357 357 358
329 329 329 330 330 330 331 331 332 332 332 333 333 333 335 336 337 337 338 338 338 339 339 339 339 340 340 341 341 342 343 344 345 344 344 345 346 346 346 346 346 347 347 347 348 349 349 349 349 349 348 348 348 349 349 349 349 349 349 351 353 352 353 355 355 353 353 353 354 354 352 352 353 354 354 354 354 354 355 356 356 356 357 357 357
329 329 329 329 329 329 330 330 330 331 331 331 332 332 333 334 335 336 337 337 338 338 338 339 339 339 339 339 340 341 342 343 343 343 343 344 345 346 346 346 346 346 346 346 347 348 348 349 349 349 349 349 348 348 348 349 348 349 349 351 352 353 354 356 356 355 353 352 354 354 353 352 354 354 354 352 352 353 354 355 355 355 356 358 358
329 329 329 329 329 329 329 329 329 330 330 330 331 332 332 333 334 335 336 337 337 338 338 338 338 338 339 339 340 340 341 341 341 342 342 342 343 344 345 346 345 345 345 345 346 347 348 349 349 349 349 349 349 349 348 348 349 349 349 351 352 353 354 355 356 355 353 352 353 354 353 353 352 353 353 352 352 352 353 354 353 354 355 357 357
329 329 329 328 329 328 329 330 330 330 330 330 330 331 332 332 333 334 335 336 337 338 338 338 338 338 339 339 340 340 340 340 340 341 341 342 342 343 344 345 345 344 344 344 344 345 346 348 349 349 349 349 349 349 348 348 349 349 350 352 352 353 354 354 354 354 353 353 352 352 353 353 352 353 353 351 351 351 352 353 353 354 354 355 355
329 329 328 329 328 328 328 329 330 331 331 331 331 331 332 332 333 334 335 336 337 337 338 338 338 338 338 338 339 339 339 340 340 340 340 340 342 342 343 343 343 343 343 343 343 343 344 346 347 349 350 349 349 349 348 349 349 349 350 351 352 352 353 353 353 353 353 353 351 353 354 353 352 353 352 351 351 350 351 352 352 353 354 354 354
329 329 329 328 329 328 328 328 328 329 330 330 331 332 331 330 331 334 334 335 336 337 337 338 338 338 338 338 338 339 339 339 340 340 340 341 341 342 342 342 342 341 342 343 342 343 344 344 345 346 347 347 348 348 349 348 349 349 349 350 351 352 352 352 352 352 352 351 352 352 354 354 352 353 352 351 351 351 351 350 351 353 353 353 353
329 329 329 328 328 327 327 327 327 327 327 327 329 330 330 329 330 333 333 332 332 333 335 336 337 337 337 338 338 338 338 339 340 340 341 341 342 341 341 341 341 341 341 342 342 343 343 343 343 343 344 345 346 347 347 348 348 349 349 349 350 350 351 351 352 351 351 351 352 352 354 353 352 352 353 352 352 352 352 351 351 352 352 352 352
329 329 328 328 327 327 327 327 327 327 327 326 326 328 329 329 329 331 332 331 330 329 330 332 334 336 337 337 337 337 338 338 339 340 340 341 340 340 340 340 340 340 341 341 341 342 342 342 342 342 343 344 346 347 347 347 348 348 349 348 348 349 350 351 351 352 351 350 351 351 353 354 353 352 353 352 353 353 352 352 352 352 353 353 352
329 328 327 327 327 327 327 327 327 328 328 327 327 327 328 328 328 328 330 333 332 330 328 328 330 332 334 335 336 336 337 337 338 338 340 340 340 340 339 340 341 340 340 341 341 341 341 341 341 341 342 343 344 346 346 347 347 348 348 348 348 348 348 349 351 351 351 349 349 350 352 353 353 352 353 353 352 353 353 353 353 353 353 353 352
328 327 327 327 327 327 327 327 327 328 328 328 327 327 327 327 327 327 328 332 333 331 329 329 329 329 331 333 334 335 335 336 336 337 338 338 338 338 338 339 340 341 340 340 340 341 340 341 341 341 342 342 343 344 344 345 346 347 348 348 348 347 347 348 350 350 351 350 349 349 350 352 352 352 353 353 353 353 352 353 354 354 353 353 352
Wind_Speed
15 14 14 14 14 14 16 18 17 16 15 15 16 16 16 17 17 16 15 14 12 12 13 12 11 10 11 11 11 13 14 16 16 16 17 18 18 17 16 16 16 16 15 15 16 15 15 16 17 18 18 18 18 18 17 17 17 16 15 16 15 15 16 16 16 16 16 15 14 14 14 14 14 14 13 13 12 12 12 11 11 11 10 10 10
14 14 14 14 14 14 15 15 14 14 14 14 14 15 16 16 17 17 16 14 11 10 12 14 14 12 13 11 9 10 13 15 16 17 17 19 20 19 18 17 17 17 17 16 16 16 16 16 17 18 18 19 19 18 18 18 17 17 17 17 17 17 17 17 17 17 17 16 15 15 15 15 14 14 14 13 13 13 13 13 12 12 12 11 11
14 14 15 15 15 15 13 12 13 14 14 14 13 13 15 15 16 16 17 13 9 10 13 14 15 13 13 13 10 10 12 14 16 17 18 19 20 21 20 19 18 18 18 18 17 17 17 17 17 18 18 19 19 19 19 19 18 18 18 19 18 18 18 18 18 18 18 17 17 16 16 15 15 14 14 14 13 13 13 13 13 13 13 13 12
15 16 17 17 17 15 12 11 13 13 13 13 12 12 13 14 15 15 17 14 9 11 13 12 12 12 13 14 13 12 13 13 15 17 18 19 20 20 20 20 19 19 19 18 18 18 18 18 17 18 19 19 20 20 20 20 20 19 19 20 19 19 19 18 19 19 19 18 18 17 17 16 16 16 15 15 14 14 14 14 14 14 14 14 13
16 18 18 18 18 17 15 14 14 12 10 10 11 12 12 13 14 14 16 15 11 10 11 11 11 11 12 12 13 14 13 13 14 16 18 19 20 20 20 20 20 20 20 19 19 19 20 19 19 19 20 20 20 21 21 20 20 20 20 21 20 20 21 19 19 19 19 19 18 18 18 18 17 17 17 17 16 16 15 15 15 15 15 15 15
16 16 16 15 15 16 16 16 14 12 10 9 11 12 12 12 13 15 15 15 14 12 10 10 11 11 11 10 12 14 14 13 13 15 18 19 20 20 20 21 20 21 21 20 20 20 21 21 20 21 21 22 22 21 21 21 21 21 21 22 21 21 22 21 20 20 20 20 19 19 19 19 19 19 19 18 17 17 16 16 16 16 16 16 16
13 12 11 11 11 12 14 14 12 12 11 9 10 11 12 12 13 14 15 15 15 14 11 11 12 12 12 11 12 11 12 14 14 15 17 18 19 20 20 21 21 21 21 21 21 21 21 22 22 22 22 22 23 22 22 22 22 22 22 22 23 22 22 22 21 21 22 21 20 20 20 20 20 20 20 19 19 18 18 18 17 17 17 17 17
11 10 9 9 9 10 11 12 12 12 11 10 10 11 11 13 13 14 15 16 16 15 13 12 12 12 12 13 13 11 12 13 15 15 17 18 20 20 20 21 21 21 21 21 22 21 22 23 23 23 23 23 23 23 23 22 23 23 22 23 24 23 23 23 22 22 22 23 22 22 21 21 21 21 20 20 20 20 19 19 18 18 18 18 18
13 13 12 12 12 12 12 12 13 13 12 12 12 12 12 13 14 14 15 16 16 16 16 14 12 12 12 12 13 13 13 13 15 16 16 18 20 21 21 20 20 20 21 21 22 22 22 22 24 25 24 24 24 24 23 23 23 23 23 24 24 24 23 23 23 23 23 23 23 23 23 23 22 22 21 21 20 20 20 19 19 19 19 19 19
14 13 13 13 14 15 16 16 15 15 14 14 14 13 12 13 14 14 15 15 16 17 17 17 14 14 13 13 14 15 15 14 14 15 16 17 19 21 21 20 20 20 20 21 22 22 22 21 22 24 25 25 25 24 24 25 24 25 24 24 24 24 24 24 24 24 24 24 24 24 24 24 24 23 22 22 21 20 20 20 20 20 20 20 20
14 13 14 17 17 16 16 17 17 16 16 15 15 14 13 13 14 14 14 14 15 15 16 17 15 14 14 15 16 15 15 15 15 15 16 17 18 19 19 19 20 20 20 20 21 21 22 22 22 24 25 26 26 26 26 26 26 26 25 25 25 25 25 25 25 25 26 26 25 24 25 25 24 23 23 23 22 21 21 21 21 21 21 21 21
12 10 11 14 17 15 14 15 15 14 15 16 15 14 14 14 14 14 14 14 14 15 15 16 14 13 15 17 18 17 17 17 16 17 16 17 18 18 19 19 19 19 19 20 20 20 21 22 23 23 25 26 26 27 28 28 27 27 27 27 27 26 26 26 27 26 27 27 26 25 25 25 24 24 23 23 22 22 22 22 22 22 22 21 21
11 10 10 11 14 14 14 14 14 12 13 15 14 13 13 13 13 13 13 13 14 14 14 13 10 10 13 14 16 16 17 17 17 18 17 17 17 19 19 19 19 19 19 19 19 19 20 21 22 23 24 25 26 27 28 28 29 29 29 29 28 28 28 28 28 27 28 28 27 27 26 26 26 25 25 24 24 24 23 24 23 23 23 22 22
12 11 12 13 14 14 15 14 13 13 13 13 12 12 12 12 12 13 12 13 14 13 12 10 8 7 7 7 9 11 13 15 17 18 18 18 18 19 20 20 21 21 19 19 19 19 19 20 22 23 24 26 26 27 27 28 29 30 30 30 29 29 29 29 29 29 28 28 28 28 28 28 27 27 26 26 26 26 25 25 25 24 24 24 24
12 11 11 12 13 13 13 13 12 12 13 13 12 12 12 12 13 13 13 13 13 12 12 11 9 7 3 3 3 3 4 8 12 16 18 19 19 20 20 21 22 21 20 20 20 20 20 21 22 22 23 25 26 26 27 28 28 29 30 30 30 30 30 30 30 30 29 29 29 29 29 28 28 28 27 27 27 27 27 26 26 26 26 25 25
10 10 10 11 12 12 10 10 10 10 11 11 12 13 12 11 12 13 13 12 12 12 12 13 12 8 2 1 0 1 2 2 4 9 12 15 19 20 21 21 22 22 22 22 21 21 21 21 22 23 23 24 25 25 26 27 27 27 29 30 31 32 32 31 31 30 30 30 30 30 30 30 29 28 28 28 28 28 27 27 27 27 26 26 26
9 10 9 10 11 11 10 10 9 9 9 10 12 12 11 11 11 12 13 14 13 12 12 12 14 13 9 4 1 0 2 1 4 4 4 8 13 16 19 21 22 22 22 23 22 22 22 22 23 23 24 25 25 26 26 26 26 27 28 29 30 31 32 33 33 32 31 30 31 31 31 31 31 30 30 29 29 29 28 28 28 27 27 26 26
9 10 10 10 10 10 10 9 8 8 9 9 10 10 11 12 12 12 13 14 15 13 12 13 14 15 16 14 10 6 3 2 2 2 3 5 6 8 11 14 18 21 22 23 22 23 23 23 24 24 25 26 26 26 27 27 27 27 28 28 29 29 30 31 32 32 32 31 31 31 32 32 32 32 32 32 31 30 29 29 28 28 27 27 27
8 9 9 9 9 9 9 9 9 8 7 8 9 10 10 11 12 12 13 13 14 13 12 14 12 14 17 19 20 18 13 6 2 2 3 4 5 7 8 9 12 16 20 23 24 24 24 24 24 25 26 26 27 28 28 28 28 27 28 28 28 28 28 28 29 29 30 30 30 31 31 32 33 33 33 33 33 32 31 31 30 29 29 28 28
9 8 8 8 9 9 8 8 8 7 7 8 9 10 10 11 12 13 13 13 14 14 14 15 13 13 16 18 20 22 21 16 11 7 3 4 7 9 11 11 12 14 16 19 23 24 25 25 25 25 26 27 28 29 29 29 29 29 29 28 27 27 27 27 27 27 27 27 28 28 29 30 31 32 32 33 33 33 33 32 32 32 31 30 29
11 10 9 9 9 9 9 8 8 7 7 7 9 9 10 11 13 15 14 14 15 15 16 17 16 16 16 16 16 18 20 19 16 11 7 7 6 5 8 9 10 14 16 16 19 21 23 25 25 26 27 28 28 29 30 30 30 30 29 28 28 27 26 26 26 26 25 25 26 26 26 27 27 28 29 31 32 33 33 32 32 32 31 31 31
11 11 11 11 10 10 10 9 9 8 7 8 9 10 11 12 13 14 14 14 15 15 16 18 18 19 18 17 15 13 12 12 12 12 10 10 8 6 8 7 7 14 18 17 17 18 19 22 24 26 27 28 29 29 30 30 30 30 30 29 28 27 26 26 25 24 24 24 24 25 25 25 25 26 26 27 29 29 30 30 30 30 30 30 31
10 10 11 11 11 11 10 9 9 8 8 9 10 10 10 11 12 12 13 14 15 15 17 18 17 19 20 19 18 17 14 11 12 13 11 9 8 7 8 8 9 14 19 18 18 18 18 19 21 23 25 27 28 29 30 30 30 30 29 28 28 27 26 26 25 24 23 24 24 24 23 23 24 24 25 25 26 26 26 27 27 28 28 28 28
10 9 10 11 10 9 10 10 10 9 8 9 10 11 10 9 10 10 11 13 14 15 16 16 15 17 19 20 21 21 20 17 16 16 14 13 10 6 7 8 8 13 19 19 18 18 17 18 20 21 23 25 26 28 29 30 30 29 29 29 28 27 26 25 24 24 23 23 23 23 23 23 23 23 24 24 24 24 24 24 24 25 25 26 26
11 10 11 10 9 9 10 10 11 10 9 8 9 10 11 10 9 9 11 13 15 15 15 15 16 17 19 21 22 23 23 22 21 19 17 17 13 7 8 8 7 11 16 15 15 16 17 17 18 18 21 23 24 26 27 28 29 28 28 29 29 28 27 25 24 24 23 23 23 23 22 22 22 22 23 23 23 22 22 22 22 23 24 24 24
10 11 10 8 7 8 9 9 10 11 10 10 10 9 10 11 10 10 11 13 15 15 14 15 18 19 19 19 21 22 22 23 23 21 19 17 14 10 7 7 8 10 11 11 11 12 14 16 17 16 18 20 21 23 25 26 26 26 27 28 29 28 27 26 25 24 24 23 23 22 21 21 21 22 22 22 22 21 21 21 21 22 22 22 22
9 9 8 6 7 8 8 9 10 11 11 11 11 10 9 9 11 11 10 11 13 14 14 14 16 18 19 18 20 20 19 20 23 22 21 19 18 18 13 6 5 6 5 7 9 11 14 17 18 17 17 17 19 21 22 23 23 23 24 27 28 28 27 27 26 25 24 24 23 23 22 21 21 21 21 21 21 20 21 21 22 23 23 22 22
8 8 7 7 8 8 9 10 11 11 11 10 10 10 9 9 9 11 11 11 12 12 13 14 15 16 16 17 19 20 19 19 22 22 22 22 20 21 19 13 7 4 3 4 5 8 13 13 13 15 15 15 17 19 20 22 22 21 23 25 26 26 25 26 25 24 24 23 23 23 23 22 21 21 20 20 20 20 20 21 23 23 23 23 23
8 9 9 9 9 10 10 11 11 11 11 9 9 9 9 9 8 9 11 11 12 13 13 14 15 14 15 17 18 19 19 18 20 21 20 21 20 20 20 19 13 6 3 4 4 4 8 10 10 13 16 16 16 17 18 19 19 20 22 24 24 24 23 23 23 23 23 22 22 23 23 23 22 21 20 20 19 19 20 21 21 22 23 23 22
10 10 11 11 12 12 12 12 12 12 11 10 9 9 9 10 9 9 9 10 12 14 13 14 15 14 14 16 17 18 17 17 19 20 20 21 22 22 21 22 19 12 6 5 5 7 10 12 14 15 17 18 18 18 18 17 17 19 21 22 22 22 21 21 22 22 22 21 21 21 21 22 22 21 20 20 19 19 20 20 20 21 21 21 20
9 10 11 12 12 12 12 12 12 12 12 12 12 11 11 11 10 10 9 10 11 13 13 13 14 14 14 15 16 17 17 17 18 19 20 21 22 21 21 22 21 19 16 10 6 9 12 13 15 17 19 20 20 20 20 19 17 18 20 20 20 20 20 21 21 21 21 20 19 19 19 19 19 20 20 20 20 20 20 20 20 20 19 19 19
9 9 10 10 10 10 10 11 11 11 12 13 13 13 13 13 12 11 11 10 11 13 14 14 13 14 16 17 16 15 16 17 17 18 19 21 20 18 20 22 22 22 22 17 10 11 16 18 19 21 22 21 21 20 20 21 20 19 20 20 19 19 19 20 20 19 20 19 19 18 18 17 18 18 18 19 19 19 20 20 20 20 20 20 19
9 9 10 10 10 11 10 10 10 10 11 12 12 12 13 13 13 13 12 12 12 13 14 14 14 14 15 16 16 16 15 15 16 16 18 19 18 17 19 21 22 22 23 21 15 13 16 20 21 22 22 20 20 20 20 21 21 21 21 21 20 19 19 19 19 19 19 19 19 18 18 17 17 17 17 17 18 18 19 20 20 20 20 20 20
9 10 11 11 11 11 11 11 10 10 10 10 10 11 11 12 13 13 13 13 14 13 13 15 15 15 15 14 15 15 14 14 14 15 16 16 15 16 17 18 20 22 24 25 21 14 13 17 19 20 20 18 19 20 20 20 21 22 23 23 22 21 20 19 19 19 18 18 19 18 18 18 17 17 16 16 17 17 18 19 19 19 19 19 19
11 11 12 12 12 11 11 11 11 10 10 10 10 10 11 12 12 13 13 13 14 15 14 15 16 16 15 15 15 15 14 14 14 15 16 16 15 15 16 16 18 21 23 26 25 18 14 15 18 19 18 17 18 19 19 18 19 20 23 24 23 22 21 20 20 19 18 18 18 18 18 18 17 17 16 16 16 16 17 17 18 18 18 19 19
12 12 12 12 12 12 11 11 11 10 11 11 11 10 10 11 12 13 13 14 15 16 16 16 17 16 16 16 16 15 14 15 15 15 15 15 15 15 16 16 16 18 19 22 23 21 17 15 16 17 18 18 19 19 18 18 18 19 21 23 24 24 22 21 20 19 18 17 17 17 17 17 17 16 16 16 16 16 16 16 17 18 18 19 19
13 13 13 12 12 12 11 11 11 11 11 12 12 12 11 11 12 12 13 14 15 15 16 17 17 17 17 17 17 16 15 16 15 15 15 16 16 16 16 17 17 17 17 18 19 20 19 17 17 18 19 20 20 21 20 19 18 18 20 22 24 24 24 22 21 20 18 17 16 16 16 16 16 16 16 17 17 17 17 17 17 17 18 18 18
13 13 14 14 13 13 12 11 12 12 12 12 12 12 12 11 11 12 13 13 14 16 16 17 17 17 17 17 17 17 17 17 17 17 17 17 17 17 17 17 17 18 18 19 18 18 20 20 19 19 20 20 20 21 21 20 19 19 19 21 23 24 24 24 23 22 20 19 19 18 17 17 17 17 17 17 18 18 18 18 17 17 18 18 18
14 14 15 15 14 13 13 13 13 13 13 13 12 12 12 11 11 11 11 12 13 15 16 16 16 17 17 17 17 17 17 18 18 18 18 18 18 17 17 17 17 17 18 19 19 18 19 19 18 18 20 21 21 22 22 21 19 19 19 19 21 23 24 25 26 25 23 22 21 20 19 18 18 18 18 18 18 19 19 19 18 18 17 17 17
14 15 15 16 15 15 15 14 14 14 13 13 13 13 12 11 11 11 12 13 13 14 15 16 16 17 18 18 18 18 18 18 18 19 19 20 19 18 18 18 17 18 18 18 19 18 17 17 17 18 19 19 21 21 21 20 18 18 19 20 21 24 24 25 27 27 25 24 23 23 22 20 20 19 19 19 20 19 19 20 19 19 18 17 17
15 15 15 16 16 17 16 16 15 15 15 14 14 13 13 13 13 13 13 14 14 15 16 16 17 17 18 18 19 19 19 19 19 19 20 20 20 20 21 20 19 19 19 19 18 18 18 17 16 16 16 17 19 20 19 20 20 21 21 21 22 24 24 24 26 27 26 25 24 24 23 22 22 21 20 21 20 20 20 20 20 19 19 18 17
16 16 16 16 17 18 17 17 17 17 17 16 15 14 13 13 14 14 14 15 15 15 16 16 17 18 19 19 20 19 19 19 19 19 20 20 20 21 22 22 21 21 21 20 19 19 20 19 16 15 14 15 19 20 21 24 25 24 23 21 22 23 21 19 21 25 27 25 24 24 24 23 23 22 22 22 21 20 20 20 20 19 19 18 17
16 17 18 18 18 19 19 19 20 19 19 18 17 16 15 14 14 15 15 15 15 15 16 16 17 19 19 20 20 20 19 19 20 20 20 19 20 20 20 21 22 22 21 22 23 21 20 19 19 17 14 15 19 20 22 24 25 25 25 24 22 22 18 13 12 18 23 24 23 24 25 24 23 23 23 23 22 21 21 21 19 18 18 18 17
18 19 20 20 20 20 20 20 20 20 20 19 18 17 17 16 16 16 17 16 16 17 17 17 18 19 19 19 20 20 20 20 20 21 20 20 21 20 20 20 21 22 21 22 23 23 22 20 20 20 19 19 20 20 21 22 22 24 25 24 23 23 20 16 14 16 20 20 20 23 25 24 22 22 23 22 21 20 20 20 19 17 17 17 17
19 20 21 21 21 20 20 20 20 20 19 19 18 18 17 17 17 18 18 17 17 17 17 17 18 19 19 19 19 19 20 20 20 21 21 21 21 20 20 20 20 21 22 22 23 24 24 24 23 23 22 22 22 22 22 21 20 22 23 23 25 24 22 21 22 23 22 18 17 19 21 21 20 20 22 20 18 17 18 18 18 17 17 17 16
20 20 21 21 21 20 20 20 21 20 19 17 17 16 17 18 18 19 19 19 18 17 17 17 18 18 19 19 19 20 21 20 21 21 22 22 21 21 21 20 20 20 21 22 23 23 24 25 26 27 27 25 25 25 24 22 22 23 23 23 24 25 25 26 26 26 24 21 18 15 14 17 18 18 20 18 15 15 16 16 17 17 17 17 16
20 21 21 22 21 20 20 21 21 22 21 19 16 15 16 18 19 19 19 19 19 18 18 18 18 18 18 19 19 20 21 21 21 21 22 21 21 21 21 22 22 22 21 21 22 21 21 22 24 27 29 29 29 29 27 25 25 26 26 25 24 24 24 24 23 22 22 21 20 16 12 14 17 17 18 18 15 14 15 15 16 17 17 16 16
20 21 22 21 20 20 21 21 22 23 23 22 20 18 17 18 19 19 18 18 19 19 19 18 18 18 17 17 18 19 20 21 21 21 21 21 20 21 22 23 24 24 23 23 24 24 23 23 25 26 27 27 27 28 28 26 26 28 28 26 25 23 20 18 18 21 22 22 22 20 16 14 16 17 17 17 15 16 16 16 16 16 17 17 16
21 22 22 21 20 21 22 23 24 25 26 25 23 21 19 18 19 19 19 19 19 20 21 20 19 18 17 17 17 18 19 19 20 20 20 20 20 21 22 23 24 23 24 24 24 24 24 23 24 25 26 26 26 27 28 26 27 28 27 26 25 23 20 15 13 17 22 22 24 24 18 15 16 17 17 16 16 16 17 17 17 17 17 17 17
22 22 22 22 22 23 24 24 25 25 26 26 24 22 21 20 20 21 21 21 21 21 23 23 22 21 19 18 18 18 19 19 19 19 19 19 20 20 21 22 22 23 24 24 23 23 22 22 23 24 25 26 26 27 28 28 28 28 28 30 29 25 22 18 15 16 19 22 26 25 17 14 17 18 15 12 11 14 18 18 18 19 18 18 18
22 22 23 23 24 25 26 26 26 25 25 25 24 23 22 21 21 21 22 22 21 22 23 23 23 23 22 21 19 19 19 20 19 20 20 20 20 21 22 21 20 22 25 24 22 22 23 23 24 25 25 24 24 26 27 28 29 29 30 34 33 27 24 23 21 17 13 16 26 28 20 16 19 19 16 11 6 9 16 19 18 19 20 19 18
Wind_Direction
254 260 268 275 284 295 302 305 308 306 298 288 284 284 286 287 286 285 282 275 268 274 276 267 262 257 249 240 235 234 236 240 239 232 225 221 220 217 216 215 216 218 218 219 219 222 222 216 215 217 217 218 217 217 218 220 225 227 223 222 225 225 225 225 227 228 228 229 230 231 236 239 242 245 245 246 247 248 252 257 263 268 270 275 279
255 262 271 278 286 296 301 303 310 312 305 294 284 282 283 284 284 284 283 280 271 278 281 271 266 263 264 263 249 239 235 238 241 238 232 225 223 222 221 219 220 222 222 220 220 220 221 220 217 216 218 220 221 221 220 221 224 229 231 229 230 231 231 231 231 231 231 232 232 233 236 241 246 249 248 247 248 250 253 255 260 266 269 273 278
259 268 274 279 284 293 298 299 309 317 313 303 290 283 282 280 281 281 282 280 266 269 272 265 267 267 267 269 262 246 237 238 241 240 239 233 227 226 226 224 224 225 224 222 221 221 222 224 222 216 218 221 222 223 222 223 223 226 233 234 232 233 233 235 236 236 235 235 235 235 238 241 246 250 250 250 251 253 256 258 259 263 267 271 276
265 272 276 277 280 285 288 288 300 310 313 310 298 286 281 277 276 276 278 278 262 260 264 259 264 274 273 268 262 252 241 239 240 240 241 236 230 228 228 227 226 226 225 224 222 222 221 225 226 218 217 221 223 224 223 225 226 226 232 236 234 234 234 235 239 241 239 239 239 239 241 242 245 247 250 251 252 254 257 258 260 263 266 270 274
270 274 275 276 276 275 273 276 287 294 301 307 299 286 279 274 272 270 271 273 266 260 262 258 260 271 277 274 265 256 246 239 238 239 239 236 232 229 230 229 227 226 226 226 225 223 221 223 226 222 218 220 222 224 224 225 228 228 232 237 236 235 236 237 240 242 241 242 243 243 244 244 245 247 248 250 251 254 257 259 261 264 266 268 272
270 272 274 274 273 270 268 271 276 277 282 293 290 283 277 272 269 266 264 268 272 267 261 259 260 266 271 271 267 261 250 241 240 240 237 236 235 233 232 230 228 226 226 227 227 226 223 221 224 225 223 220 220 223 224 225 228 229 232 236 237 236 237 237 239 242 242 243 244 245 246 247 248 249 249 251 252 254 257 260 262 264 266 268 270
261 267 272 275 273 268 267 267 267 268 274 279 278 276 274 271 265 263 262 264 270 269 264 261 261 264 265 266 268 264 251 243 243 242 239 237 236 235 234 231 228 226 227 228 228 227 224 222 222 226 226 223 221 222 223 224 228 231 232 233 236 237 237 237 238 241 243 244 245 246 247 248 249 249 250 251 252 255 257 259 262 264 266 268 270
253 263 270 273 272 267 264 264 264 266 269 269 268 269 270 268 263 260 260 261 265 268 266 265 264 266 268 269 268 260 250 248 248 246 243 240 237 236 234 232 229 227 229 231 231 230 228 225 223 224 227 227 226 225 223 224 226 229 230 231 234 236 237 237 237 238 241 243 244 246 248 249 250 250 251 252 253 256 258 259 262 264 266 269 271
254 261 265 266 265 267 268 268 269 268 266 266 267 268 266 263 261 259 260 261 264 266 266 266 267 271 270 270 269 260 253 255 253 250 247 243 239 236 234 233 230 229 230 233 234 233 232 229 227 225 226 227 229 229 226 225 226 228 230 232 234 234 236 236 236 238 240 242 244 245 247 249 250 251 252 254 256 258 260 262 263 265 267 270 272
262 263 265 268 267 266 267 269 270 269 266 266 266 264 259 257 258 259 262 264 264 264 266 267 269 273 272 272 274 268 260 259 255 250 246 244 241 236 235 234 232 231 231 232 234 234 233 232 231 229 227 227 229 230 230 229 230 231 233 234 235 235 236 237 238 239 241 242 244 246 248 249 250 252 253 255 257 259 262 264 265 266 268 269 271
276 275 274 275 273 268 265 266 266 266 263 260 258 254 251 252 253 255 260 264 265 265 266 268 269 272 273 275 279 273 265 260 254 250 246 244 243 238 236 236 235 233 231 232 233 234 234 234 234 233 231 230 230 231 232 232 233 234 235 236 237 237 238 239 240 242 244 245 246 248 250 251 252 253 255 257 258 260 263 265 266 267 268 269 270
278 283 280 272 267 262 257 253 254 258 258 255 252 252 253 252 251 253 257 261 264 266 267 266 266 269 272 275 277 274 269 263 254 251 250 246 243 241 239 236 235 233 231 231 233 236 237 237 237 238 237 235 235 235 233 233 234 235 236 237 238 240 240 241 242 243 246 248 249 250 251 253 254 255 256 258 260 261 262 264 266 267 269 271 273
280 283 279 270 265 262 257 249 245 246 252 255 255 256 252 249 249 250 253 257 261 265 266 262 259 268 273 277 279 275 271 264 254 248 249 249 245 243 243 239 237 235 233 232 234 238 239 240 239 239 240 240 240 240 239 239 238 237 238 239 240 242 244 244 245 246 247 249 250 251 252 254 255 256 257 258 260 262 263 265 266 268 270 272 274
286 285 284 283 279 271 265 261 250 239 242 252 256 254 248 241 242 245 247 252 257 261 260 250 239 254 272 287 291 282 267 257 251 247 244 246 246 245 245 243 240 239 238 238 238 240 242 243 242 240 240 241 242 243 244 245 244 243 241 240 242 243 245 246 246 248 249 250 251 252 253 255 255 256 258 259 261 262 264 265 267 269 270 272 273
300 299 296 293 289 280 271 265 257 242 237 245 250 251 250 245 241 243 245 248 251 252 252 244 231 238 267 288 297 310 272 249 249 250 246 245 246 246 246 245 245 243 243 244 243 243 244 246 246 245 244 243 244 244 246 246 246 247 246 245 244 245 246 246 247 248 249 251 252 253 254 255 256 257 258 260 261 263 264 266 268 269 271 272 274
312 308 303 297 293 290 280 268 265 255 240 240 250 254 254 253 250 246 244 242 244 244 246 242 231 224 224 244 278 328 270 272 285 265 250 246 246 246 246 247 248 246 246 246 245 244 245 247 249 250 250 249 250 250 249 249 247 248 249 248 247 247 248 248 248 249 249 250 252 253 254 255 257 257 258 260 261 262 264 266 267 269 271 272 273
313 310 305 299 293 288 278 269 267 264 250 242 251 257 256 256 258 253 245 241 241 239 238 235 231 228 223 212 197 292 237 307 332 295 256 253 251 249 249 248 248 248 248 248 245 245 245 246 248 250 252 253 254 254 253 252 251 249 249 249 248 248 248 248 249 249 249 250 251 253 254 255 257 258 259 260 261 263 264 265 267 268 270 271 272
318 315 311 304 299 298 293 284 276 267 255 250 255 260 256 254 256 253 250 246 242 234 229 231 236 239 235 230 233 241 255 321 340 309 305 287 260 256 257 253 251 250 249 249 247 246 245 246 247 249 251 253 255 256 256 256 255 254 252 251 250 250 250 250 250 250 250 251 252 253 254 256 258 258 259 261 262 263 264 265 266 268 269 270 271
338 331 325 317 312 313 309 298 289 282 272 266 264 265 260 255 256 255 251 246 239 230 230 234 236 241 240 236 236 240 250 262 246 266 314 298 271 278 281 273 264 257 253 252 251 250 249 249 250 251 251 253 256 257 257 258 258 258 258 256 254 253 253 253 253 252 251 251 252 253 254 256 258 259 260 262 263 263 264 265 266 267 269 269 271
11 2 351 339 328 322 316 303 292 289 284 273 268 266 264 260 260 260 254 245 239 236 239 240 234 236 242 240 237 239 244 246 242 244 263 282 285 285 280 280 276 267 263 259 255 253 253 254 254 255 256 256 257 258 259 259 259 260 259 259 258 257 256 255 255 254 253 253 254 254 255 256 257 258 259 261 262 264 265 265 266 267 268 269 271
20 16 10 3 353 341 331 322 310 300 286 275 271 267 264 263 263 266 265 259 254 248 243 242 237 236 240 237 234 236 240 243 242 236 230 246 268 282 280 286 285 277 275 272 268 263 260 261 259 258 259 259 259 259 259 260 260 260 260 260 259 259 258 256 255 255 255 255 255 256 257 257 258 258 259 260 262 263 265 266 268 269 269 269 270
6 7 10 8 5 358 347 336 326 315 294 282 278 271 267 266 266 269 272 272 269 259 250 248 245 241 239 234 228 225 228 235 230 222 225 236 245 260 270 276 283 285 287 282 280 279 273 269 265 262 261 260 260 259 259 260 259 260 260 260 260 260 259 258 257 257 257 258 257 257 258 259 261 261 261 262 262 263 265 266 268 269 269 269 269
357 2 10 8 7 6 2 352 341 329 311 302 296 288 279 272 272 275 272 270 269 264 257 255 252 247 243 236 233 232 228 226 220 213 212 219 234 254 263 266 267 275 286 290 288 287 283 277 272 268 266 264 262 260 259 259 259 260 261 261 261 260 260 259 258 258 258 259 259 259 259 260 262 262 263 263 263 263 264 265 267 268 270 270 270
360 1 4 4 7 9 9 7 0 349 333 321 312 304 293 280 279 279 274 272 270 266 260 257 255 251 247 242 242 242 239 237 233 225 220 220 228 245 260 268 267 266 279 290 291 288 284 280 279 277 272 268 265 263 261 260 260 261 261 261 261 261 260 259 258 258 257 258 259 259 260 261 262 263 263 263 263 263 264 265 267 269 270 271 272
359 355 355 1 10 10 9 11 10 5 355 342 329 314 304 301 295 282 275 270 265 264 262 260 258 254 253 251 248 248 247 246 243 239 237 233 230 240 256 256 254 268 280 285 288 290 287 283 281 280 277 272 269 266 263 262 263 263 261 261 262 262 261 261 259 257 257 257 258 259 261 262 264 265 264 263 263 263 263 264 267 269 270 270 270
350 346 347 356 7 6 2 2 2 2 357 351 345 330 315 317 315 298 282 269 264 267 269 265 261 255 252 252 251 252 253 251 248 244 242 236 228 229 243 249 245 257 273 277 276 280 284 288 287 282 277 275 272 269 266 264 265 265 262 261 262 262 261 261 260 259 257 257 257 259 262 264 266 267 267 266 266 265 264 265 268 270 270 270 270
339 339 344 349 354 355 350 348 345 345 344 342 340 332 320 316 312 306 298 285 277 274 271 268 264 257 253 252 252 253 253 251 250 248 245 241 239 236 232 235 256 254 257 265 262 261 273 287 294 289 281 279 277 272 269 268 267 267 265 261 262 262 261 260 260 259 259 257 258 259 261 265 267 269 269 270 269 269 268 269 272 272 271 272 274
338 339 343 344 345 344 341 340 336 333 334 332 331 328 320 310 302 300 300 299 295 286 279 275 267 261 260 258 255 253 253 252 252 252 252 250 250 246 238 229 237 254 259 255 251 260 272 281 293 296 293 290 288 281 272 269 269 268 265 262 262 263 261 260 259 259 260 259 259 259 261 264 267 269 269 269 269 268 268 271 274 275 274 273 274
344 341 341 338 336 336 334 333 330 327 324 320 321 325 324 317 307 300 298 300 299 293 290 286 277 270 267 264 260 259 259 258 256 256 258 258 257 253 248 243 238 236 249 258 244 243 265 271 278 293 299 300 299 291 278 271 271 269 265 263 263 264 263 261 260 260 260 260 259 259 261 263 266 267 268 269 268 268 269 271 274 277 276 273 272
335 332 330 328 326 326 324 323 320 316 311 308 310 314 318 317 311 305 301 298 292 288 289 290 288 282 272 266 264 264 265 266 266 264 259 256 252 248 249 250 248 245 244 254 254 243 253 265 269 279 294 300 301 296 286 280 279 272 267 266 265 265 265 263 261 260 259 259 259 260 260 262 263 265 266 268 269 269 270 272 274 275 276 274 272
330 326 324 321 320 319 317 315 312 308 303 299 300 304 307 307 304 301 298 294 288 287 292 294 292 288 280 275 273 271 272 273 273 272 268 262 254 247 247 249 246 247 251 257 266 253 247 256 266 275 287 295 297 294 288 287 285 277 271 269 268 267 266 263 261 258 257 257 257 258 259 259 260 261 263 266 268 269 270 271 272 273 273 272 272
333 330 325 321 316 312 312 312 311 310 304 298 296 297 298 297 296 294 292 289 284 284 291 295 294 290 286 285 284 281 280 280 277 277 277 275 269 259 254 251 245 244 247 252 261 261 253 255 265 274 280 288 292 291 287 285 285 281 276 273 271 267 263 261 260 257 254 255 254 255 255 255 256 257 260 263 265 266 267 268 269 269 269 268 269
330 328 325 322 317 311 308 306 307 310 308 303 298 294 293 291 289 290 290 288 284 281 285 288 289 290 288 287 288 285 282 280 277 274 274 276 275 266 256 252 249 246 244 244 250 262 261 260 265 270 273 278 284 285 285 285 284 283 280 276 271 266 261 260 258 256 253 251 251 252 254 254 253 253 255 259 262 264 265 266 266 265 266 267 267
324 322 320 319 316 309 306 303 303 305 308 306 301 296 294 291 289 288 288 290 290 286 283 283 284 288 289 286 283 281 277 272 268 268 269 270 268 263 258 252 250 250 246 241 244 255 264 262 264 268 268 270 273 277 281 284 286 285 281 276 272 267 263 261 258 256 253 250 250 250 252 253 251 251 253 256 259 263 264 265 264 263 264 266 266
322 319 318 317 314 308 305 303 302 303 306 309 305 299 294 292 291 289 287 288 290 289 287 284 285 287 288 288 284 279 276 273 269 267 268 267 264 260 259 254 249 250 246 240 238 245 260 266 265 267 269 269 269 273 278 285 288 286 280 275 272 269 266 263 261 259 255 251 249 249 251 251 250 250 251 252 255 258 259 260 262 263 266 268 269
324 323 320 317 315 311 308 306 306 307 308 309 307 302 296 292 291 290 288 287 286 288 287 286 286 286 285 287 286 281 278 274 271 269 266 265 265 262 261 260 256 253 251 246 242 244 253 263 266 266 269 272 274 275 278 283 284 283 280 275 271 268 266 263 261 260 258 255 252 250 249 250 249 249 248 249 252 253 254 257 261 265 269 271 272
327 328 325 320 318 316 314 313 312 311 310 310 307 303 297 294 292 290 289 288 286 287 288 287 286 285 284 284 284 284 281 274 270 268 266 264 265 265 264 264 263 261 261 260 255 251 253 259 263 266 268 271 274 274 275 279 281 282 280 276 270 266 264 262 260 259 258 256 253 250 248 246 246 246 246 248 249 250 253 257 261 266 269 271 271
328 330 329 325 320 317 315 315 315 313 312 310 308 305 301 296 294 292 289 287 286 286 288 289 288 287 285 283 282 283 282 276 271 269 268 268 267 266 265 264 265 265 266 265 261 256 255 257 259 262 264 264 267 270 271 274 277 276 276 275 272 266 262 259 258 256 255 254 253 251 249 247 246 246 248 250 251 252 254 258 262 266 269 270 270
324 325 327 326 323 318 314 314 316 317 314 310 308 307 304 300 298 297 294 291 289 287 287 287 288 289 287 284 283 282 281 278 275 271 269 268 267 265 264 264 264 264 265 264 262 257 254 255 256 256 258 259 261 264 266 269 271 269 266 266 266 264 261 258 257 256 253 252 252 252 252 252 251 252 253 254 254 253 254 257 261 264 265 266 267
323 322 323 324 323 320 316 314 315 317 316 314 311 309 307 307 306 304 303 300 296 292 289 286 286 288 288 286 285 282 281 280 277 273 269 267 265 265 264 264 263 263 263 263 263 259 253 252 253 253 254 255 255 256 258 260 260 258 255 252 253 258 259 259 259 257 254 252 251 252 252 253 255 256 257 258 256 254 253 255 259 261 262 263 265
326 325 324 325 325 323 321 318 316 316 316 316 316 315 311 308 307 306 305 302 299 295 292 288 286 284 284 285 285 284 283 281 278 275 271 268 267 266 267 267 264 263 264 264 264 262 258 254 251 249 249 249 250 249 248 248 247 252 256 251 247 253 257 258 259 257 254 252 251 251 252 254 256 259 260 260 260 257 255 256 258 259 260 261 263
329 328 327 328 329 326 324 322 319 318 317 317 319 318 314 310 309 308 305 302 299 296 292 288 285 283 282 282 283 284 283 281 279 278 276 273 270 268 268 268 267 265 264 263 262 260 259 258 253 247 244 245 248 247 247 247 247 250 253 248 245 249 252 254 258 259 255 251 249 251 252 252 254 257 259 261 261 260 257 256 257 258 259 259 259
330 329 329 330 331 330 327 325 322 320 318 318 319 318 316 316 315 312 309 304 299 295 292 289 287 286 283 281 281 282 282 281 282 282 281 278 274 271 269 268 267 265 261 262 263 261 257 255 253 250 246 248 251 250 250 251 249 247 247 245 243 243 240 238 251 259 256 251 246 246 250 251 251 253 257 260 261 260 259 259 259 258 256 254 254
329 328 328 330 332 332 329 326 323 321 320 319 319 318 317 318 318 315 311 306 300 296 293 291 289 288 286 283 280 280 280 280 282 284 284 281 279 277 274 271 270 270 266 264 265 263 259 256 254 251 247 249 253 253 252 253 252 249 247 243 241 239 235 230 233 245 253 252 242 239 246 250 249 250 253 257 260 261 261 261 259 254 250 249 251
327 325 326 329 331 332 330 327 322 319 318 318 319 319 318 319 319 318 314 309 303 297 293 291 290 288 287 285 283 281 280 280 281 282 282 281 280 280 277 275 274 274 272 269 266 264 262 261 259 257 253 250 252 255 255 254 254 253 248 243 240 238 235 233 236 241 246 246 235 232 240 247 246 247 251 254 258 258 258 257 254 249 246 246 248
323 323 324 326 328 329 329 329 325 321 318 317 318 317 318 320 321 319 317 313 307 299 294 293 291 289 287 286 285 283 281 279 279 280 281 280 279 279 279 277 276 274 272 270 268 266 264 261 260 261 259 257 258 261 261 257 254 253 251 246 242 240 239 240 242 243 243 241 234 228 236 245 242 242 247 251 252 251 252 253 250 246 245 245 246
321 321 322 323 324 325 326 327 326 324 323 322 321 318 316 318 319 319 318 316 312 305 297 293 292 291 289 286 284 283 281 279 278 278 280 281 279 278 277 277 277 276 274 271 269 268 267 265 264 264 264 264 264 264 263 259 256 256 256 255 253 250 247 245 243 241 239 238 232 223 228 242 239 238 245 249 248 247 248 248 245 241 240 242 245
321 321 322 321 321 321 323 324 323 322 323 322 321 318 314 314 314 313 312 313 315 312 305 300 296 293 291 288 285 284 283 281 279 278 279 280 279 277 276 276 276 275 273 271 271 270 269 269 270 270 270 271 269 267 265 262 259 258 257 257 256 251 243 237 236 236 235 233 227 220 222 233 233 235 243 246 244 244 245 243 239 234 234 239 245
322 323 322 321 321 320 321 321 321 320 320 320 319 317 313 312 312 311 307 306 309 311 309 306 302 298 293 289 288 288 285 281 280 281 282 281 278 276 277 277 276 275 273 272 272 272 272 272 271 272 273 273 272 270 269 266 264 261 255 249 247 240 230 228 232 233 232 230 224 219 220 227 229 231 237 241 241 241 241 240 235 232 233 237 242
322 322 322 321 319 319 319 318 317 315 314 314 314 313 310 308 307 307 306 304 303 304 304 304 303 301 296 291 288 288 286 283 282 282 281 279 277 276 275 275 275 274 274 273 273 275 276 275 274 274 274 274 270 268 266 264 262 260 251 245 243 237 228 229 234 235 236 234 228 221 217 224 227 225 225 231 235 236 237 235 232 230 231 234 239
323 322 321 320 318 317 316 314 313 311 308 308 308 307 307 307 305 305 306 303 300 300 301 300 299 298 296 293 290 287 286 286 284 280 276 274 273 272 272 271 271 270 271 273 274 276 276 275 275 275 276 276 274 270 266 263 260 256 250 247 243 234 226 228 231 231 235 239 233 224 215 217 221 216 210 209 217 234 233 231 229 227 228 230 235